Location: ??????
(55.0357°N, 38.6195°E)
Time: 10:59:05
(UTC+00:00)

Meteor 2-10 - Pass Details

Date: 14 April 2024
Orbit: 738 x 866 km, 81.2° (Epoch: 18 May)

Event Time Altitude Azimuth Distance (km) Brightness Sun altitude
Rises 00:26:23 0° 344° (NNW) 3,371 7.7 -15.3°
Reaches altitude 10° 00:28:46 10° 343° (NNW) 2,451 7.0 -15.0°
Maximum altitude 00:34:20 76° 259° (W) 881 4.1 -14.4°
Drops below altitude 10° 00:40:00 10° 175° (S) 2,495 6.3 -13.8°
Sets 00:42:27 0° 174° (S) 3,434 7.0 -13.5°
